Flag for Italy Weather past 2 weeks in Messina, Italy

Now
86 °F

Passing clouds.


Feels Like: 84 °F
Forecast: 73 / 83 °F
Wind: 15 mph from North

Location: Reggio Calabria

Current Time: Jul 4, 2015 at 7:21:53 PM

Latest Report: Jul 4, 2015 at 5:50 PM


Visibility: N/A

Pressure: 30.09 "Hg

Humidity: 33%

Dew point: 54 °F

Location of MessinaLocation

Historic Weather in Messina — Graph

°F

Messina temperature yesterday

Maximum temperature yesterday: 88 °F (at 3:50 PM)
Minimum temperature yesterday: 75 °F (at 6:00 AM)
Average temperature yesterday: 81 °F

Past Weeks' High & Low Weather Summary

 TemperatureHumidityPressure
High88 °F (Jun 23, 2:50 PM)83% (Jun 21, 11:50 PM)30.18 "Hg (Jun 21, 11:50 PM)
Low66 °F (Jun 23, 6:50 AM)20% (Jun 23, 12:50 PM)29.80 "Hg (Jun 20, 4:50 PM)
Average77 °F54%30.02 "Hg
* Reported Jun 19 5:50 PM — Jul 4 5:50 PM, Messina, Weather by CustomWeather, © 2015

Note: Actual official high and low records may vary slightly from our data, if they occured in-between our weather recording intervals... More about our weather records

Advertising

Messina weather history for previous 24 hours

 ConditionsComfort  
Time TempWeatherWind HumidityBarometerVisibility
5:50 PM
Sat, Jul 4
86 °FPassing clouds.15 mph33%30.09 "HgN/A
4:50 PM86 °FPassing clouds.17 mph38%30.09 "HgN/A
3:50 PM88 °FPassing clouds.16 mph31%30.09 "HgN/A
2:50 PM86 °FPassing clouds.15 mph35%30.09 "HgN/A
1:50 PM86 °FPassing clouds.15 mph40%30.12 "HgN/A
12:50 PM84 °FPassing clouds.18 mph45%30.12 "HgN/A
11:50 AM84 °FPassing clouds.18 mph40%30.12 "HgN/A
10:50 AM84 °FSunny.21 mph37%30.12 "Hg10 mi
9:50 AM82 °FSunny.15 mph48%30.12 "Hg10 mi
8:50 AM81 °FSunny.14 mph54%30.15 "Hg10 mi
7:50 AM77 °FSunny.13 mph61%30.15 "Hg10 mi
6:50 AM75 °FSunny.9 mph54%30.15 "Hg10 mi
6:00 AM75 °FClear.14 mph65%30.12 "Hg10 mi
11:50 PM
Fri, Jul 3
77 °FClear.10 mph44%30.18 "Hg10 mi
10:50 PM77 °FClear.8 mph42%30.18 "Hg10 mi
9:50 PM79 °FClear.10 mph51%30.15 "Hg10 mi
8:50 PM79 °FSunny.12 mph48%30.15 "Hg10 mi
7:50 PM81 °FSunny.14 mph37%30.12 "Hg10 mi
Weather by CustomWeather, © 2015

See weather overviewHow to use our weather pages